DLH341 EPBY-EDDC

Flight info

Callsign DLH341
Flight time N/A
Altitude 30000
Route LUXUD Z96 DEKUT DCT GOVEN L735 OLBIK M748 OSKAN
Aircraft A321/M-DE2E3FGIJ1LORVWXYZ/HB2

Departure

Time N/A
Airport Ignacy Jan Paderewski Bydgoszcz Airport (EPBY)

Arrival

Time 2026-05-05 20:11
Airport Dresden Airport (EDDC)
Time Latitude Longitude Altitude Speed Heading
2026-05-05 19:39 52.62691 15.95559 29844 ft 387 kts 233°
2026-05-05 19:40 52.59432 15.88528 29838 ft 388 kts 233°
2026-05-05 19:40 52.56277 15.81725 29839 ft 388 kts 233°
2026-05-05 19:41 52.53005 15.74684 29847 ft 388 kts 233°
2026-05-05 19:41 52.49711 15.67649 29844 ft 388 kts 233°
2026-05-05 19:42 52.46424 15.60648 29840 ft 387 kts 233°
2026-05-05 19:42 52.43138 15.53664 29864 ft 386 kts 233°
2026-05-05 19:43 52.39790 15.46800 29856 ft 385 kts 232°
2026-05-05 19:43 52.36429 15.40029 29837 ft 376 kts 232°
2026-05-05 19:44 52.33140 15.33383 29836 ft 376 kts 232°
2026-05-05 19:44 52.31498 15.30061 29536 ft 375 kts 232°
2026-05-05 19:44 52.29864 15.26755 29196 ft 372 kts 232°
2026-05-05 19:44 52.28240 15.23472 28861 ft 370 kts 232°
2026-05-05 19:45 52.26626 15.20215 28507 ft 369 kts 231°
2026-05-05 19:45 52.25011 15.16958 28177 ft 368 kts 231°
2026-05-05 19:45 52.23314 15.13540 27831 ft 380 kts 231°
2026-05-05 19:45 52.21703 15.10304 27530 ft 388 kts 231°
2026-05-05 19:46 52.19997 15.06883 27221 ft 389 kts 231°
2026-05-05 19:46 52.18290 15.03467 26907 ft 388 kts 231°
2026-05-05 19:46 52.16591 15.00071 26603 ft 386 kts 231°
2026-05-05 19:46 52.14897 14.96686 26291 ft 385 kts 231°
2026-05-05 19:47 52.13211 14.93323 25988 ft 383 kts 231°
2026-05-05 19:47 52.11528 14.89972 25683 ft 382 kts 231°
2026-05-05 19:47 52.09852 14.86635 25400 ft 380 kts 231°
2026-05-05 19:47 52.08187 14.83320 25111 ft 379 kts 231°
2026-05-05 19:48 52.06466 14.79897 24801 ft 400 kts 230°
2026-05-05 19:48 52.04686 14.76370 24490 ft 407 kts 230°
2026-05-05 19:48 52.02888 14.72816 24183 ft 407 kts 230°
2026-05-05 19:48 52.01088 14.69263 23875 ft 406 kts 230°
2026-05-05 19:49 51.99296 14.65729 23577 ft 405 kts 230°
2026-05-05 19:49 51.98113 14.63396 23375 ft 404 kts 230°
2026-05-05 19:49 51.95734 14.58701 22901 ft 402 kts 230°
2026-05-05 19:49 51.93962 14.55208 22542 ft 400 kts 230°
2026-05-05 19:50 51.92200 14.51737 22194 ft 399 kts 230°
2026-05-05 19:50 51.90440 14.48275 21853 ft 397 kts 230°
2026-05-05 19:50 51.88687 14.44832 21513 ft 396 kts 230°
2026-05-05 19:50 51.86936 14.41404 21163 ft 395 kts 230°
2026-05-05 19:51 51.85290 14.38193 20857 ft 394 kts 230°
2026-05-05 19:51 51.83539 14.34790 20529 ft 393 kts 230°
2026-05-05 19:51 51.81796 14.31403 20204 ft 392 kts 230°
2026-05-05 19:51 51.80055 14.28017 19879 ft 391 kts 230°
2026-05-05 19:52 51.78319 14.24644 19567 ft 390 kts 229°
2026-05-05 19:52 51.76634 14.21374 19254 ft 389 kts 229°
2026-05-05 19:52 51.74923 14.18057 18945 ft 388 kts 229°
2026-05-05 19:52 51.73197 14.14716 18638 ft 387 kts 229°
2026-05-05 19:53 51.71476 14.11388 18329 ft 386 kts 229°
2026-05-05 19:53 51.69929 14.08399 18054 ft 385 kts 229°
2026-05-05 19:53 51.68213 14.05090 17701 ft 384 kts 229°
2026-05-05 19:53 51.66501 14.01795 17353 ft 383 kts 229°
2026-05-05 19:54 51.64793 13.98513 17004 ft 381 kts 229°
2026-05-05 19:54 51.63355 13.95754 16728 ft 380 kts 229°
2026-05-05 19:54 51.61664 13.92507 16407 ft 378 kts 229°
2026-05-05 19:54 51.59975 13.89270 16067 ft 376 kts 229°
2026-05-05 19:55 51.58334 13.86131 15738 ft 375 kts 229°
2026-05-05 19:55 51.56829 13.83254 15446 ft 373 kts 229°
2026-05-05 19:55 51.55159 13.80069 15167 ft 372 kts 229°
2026-05-05 19:55 51.53492 13.76898 14918 ft 371 kts 229°
2026-05-05 19:56 51.51832 13.73743 14772 ft 369 kts 229°
2026-05-05 19:56 51.50171 13.70596 14800 ft 370 kts 228°
2026-05-05 19:56 51.48347 13.67792 14800 ft 369 kts 217°
2026-05-05 19:56 51.46198 13.65572 14795 ft 368 kts 207°
2026-05-05 19:57 51.43833 13.64018 14797 ft 367 kts 197°
2026-05-05 19:57 51.42266 13.63366 14797 ft 368 kts 191°
2026-05-05 19:57 51.38984 13.62857 14800 ft 368 kts 180°
2026-05-05 19:57 51.36434 13.62897 14389 ft 360 kts 180°
2026-05-05 19:58 51.33964 13.62934 12873 ft 354 kts 180°
2026-05-05 19:58 51.31511 13.62969 11531 ft 348 kts 179°
2026-05-05 19:58 51.29088 13.63001 11163 ft 350 kts 179°
2026-05-05 19:58 51.26656 13.63033 10773 ft 347 kts 179°
2026-05-05 19:59 51.25032 13.63054 10305 ft 345 kts 179°
2026-05-05 19:59 51.23429 13.63075 10145 ft 334 kts 179°
2026-05-05 19:59 51.20684 13.62703 9993 ft 311 kts 192°
2026-05-05 19:59 51.18689 13.61602 9874 ft 297 kts 204°
2026-05-05 20:00 51.16970 13.59945 9580 ft 281 kts 215°
2026-05-05 20:00 51.15490 13.57971 8761 ft 276 kts 218°
2026-05-05 20:00 51.14037 13.55978 7921 ft 275 kts 218°
2026-05-05 20:00 51.12596 13.53997 7107 ft 273 kts 218°
2026-05-05 20:01 51.11182 13.52057 6332 ft 271 kts 218°
2026-05-05 20:01 51.09754 13.50105 5509 ft 270 kts 218°
2026-05-05 20:01 51.08329 13.48158 4685 ft 270 kts 218°
2026-05-05 20:01 51.06905 13.46213 4164 ft 272 kts 219°
2026-05-05 20:02 51.05462 13.44250 4010 ft 275 kts 219°
2026-05-05 20:02 51.04010 13.42280 4007 ft 276 kts 218°
2026-05-05 20:02 51.02547 13.40295 4005 ft 278 kts 219°
2026-05-05 20:02 51.01006 13.38553 4004 ft 263 kts 202°
2026-05-05 20:03 50.99328 13.37820 3998 ft 240 kts 180°
2026-05-05 20:03 50.97749 13.38055 3998 ft 222 kts 160°
2026-05-05 20:03 50.96378 13.39066 4005 ft 215 kts 140°
2026-05-05 20:03 50.95312 13.40678 4006 ft 210 kts 123°
2026-05-05 20:04 50.94624 13.42699 4000 ft 208 kts 108°
2026-05-05 20:04 50.94140 13.44851 4007 ft 208 kts 107°
2026-05-05 20:04 50.93869 13.47076 4009 ft 204 kts 89°
2026-05-05 20:04 50.94096 13.49266 4002 ft 202 kts 69°
2026-05-05 20:05 50.94797 13.51204 4006 ft 205 kts 50°
2026-05-05 20:05 50.95852 13.52743 4008 ft 206 kts 43°
2026-05-05 20:05 50.96939 13.54217 3999 ft 205 kts 42°
2026-05-05 20:05 50.98027 13.55699 4006 ft 207 kts 42°
2026-05-05 20:06 50.99117 13.57186 4006 ft 206 kts 42°
2026-05-05 20:06 50.99851 13.58187 3939 ft 207 kts 43°
2026-05-05 20:06 51.01281 13.60139 3639 ft 203 kts 43°
2026-05-05 20:06 51.01990 13.61107 3464 ft 202 kts 43°
2026-05-05 20:07 51.03041 13.62543 3223 ft 190 kts 43°
2026-05-05 20:07 51.03984 13.63829 2967 ft 164 kts 43°
2026-05-05 20:07 51.04819 13.64974 2776 ft 159 kts 43°
2026-05-05 20:07 51.05621 13.66071 2568 ft 142 kts 43°
2026-05-05 20:08 51.06333 13.67046 2383 ft 134 kts 43°
2026-05-05 20:08 51.07027 13.67999 2203 ft 131 kts 43°
2026-05-05 20:08 51.07716 13.68944 2024 ft 131 kts 43°
2026-05-05 20:08 51.08401 13.69883 1854 ft 130 kts 43°
2026-05-05 20:09 51.09093 13.70833 1679 ft 130 kts 43°
2026-05-05 20:09 51.09780 13.71776 1484 ft 130 kts 43°
2026-05-05 20:09 51.10462 13.72716 1356 ft 130 kts 41°
2026-05-05 20:09 51.11149 13.73651 1142 ft 130 kts 39°
2026-05-05 20:10 51.11830 13.74568 962 ft 129 kts 41°
2026-05-05 20:10 51.12515 13.75529 771 ft 130 kts 41°
2026-05-05 20:10 51.13157 13.76417 713 ft 109 kts 41°
2026-05-05 20:10 51.13669 13.77121 717 ft 85 kts 40°
2026-05-05 20:11 51.14006 13.77578 715 ft 56 kts 41°
2026-05-05 20:11 51.14245 13.77911 717 ft 23 kts 40°
2026-05-05 20:11 51.14350 13.78058 715 ft 21 kts 41°
2026-05-05 20:11 51.14351 13.78196 714 ft 0 kts 139°
2026-05-05 20:12 51.14340 13.78222 715 ft 10 kts 122°
2026-05-05 20:12 51.14274 13.78345 713 ft 16 kts 139°
2026-05-05 20:12 51.14185 13.78310 716 ft 15 kts 219°
2026-05-05 20:12 51.14100 13.78191 711 ft 18 kts 220°
2026-05-05 20:13 51.14001 13.78057 714 ft 20 kts 220°
2026-05-05 20:13 51.13903 13.77918 714 ft 17 kts 221°
2026-05-05 20:13 51.13810 13.77792 713 ft 19 kts 220°
2026-05-05 20:13 51.13707 13.77654 712 ft 17 kts 221°
2026-05-05 20:14 51.13614 13.77524 714 ft 19 kts 221°
2026-05-05 20:14 51.13509 13.77378 716 ft 21 kts 221°
2026-05-05 20:14 51.13414 13.77250 714 ft 16 kts 221°
2026-05-05 20:14 51.13324 13.77126 714 ft 18 kts 221°
2026-05-05 20:15 51.13248 13.77019 713 ft 13 kts 221°
2026-05-05 20:15 51.13196 13.76948 714 ft 8 kts 221°
2026-05-05 20:15 51.13126 13.76852 714 ft 18 kts 220°
2026-05-05 20:15 51.13023 13.76714 714 ft 20 kts 220°
2026-05-05 20:16 51.12960 13.76622 716 ft 10 kts 217°
2026-05-05 20:16 51.12902 13.76548 712 ft 9 kts 220°
2026-05-05 20:16 51.12846 13.76470 714 ft 12 kts 220°
2026-05-05 20:16 51.12773 13.76495 716 ft 11 kts 137°
2026-05-05 20:17 51.12731 13.76567 711 ft 10 kts 132°
2026-05-05 20:17 51.12687 13.76649 713 ft 8 kts 130°
2026-05-05 20:17 51.12638 13.76662 715 ft 8 kts 210°
2026-05-05 20:17 51.12608 13.76621 716 ft 4 kts 221°
2026-05-05 20:18 51.12600 13.76610 716 ft 0 kts 220°